Location: ?????????
(55.6553°N, 38.9075°E)
Time: 03:19:00
(UTC+00:00)

Cosmos 1745 Rocket - Pass Details

Date: 18 October 2019
Orbit: 954 x 997 km, 83.0° (Epoch: 16 November)

Event Time Altitude Azimuth Distance (km) Brightness Sun altitude
Exits shadow 01:02:24 60° 239° (WSW) 1,106 3.9 -25.4°
Maximum altitude 01:03:19 68° 285° (WNW) 1,045 3.9 -25.3°
Drops below altitude 10° 01:09:35 10° 9° (N) 2,746 6.7 -24.5°
Sets 01:12:09 0° 12° (NNE) 3,705 7.5 -24.1°
